[[{"header":{"parameterUnit":"m.s-1","parameterCategory":1,"la1":30.2991,"la2":30.254,"lo1":-89.0895,"lo2":-89.0444,"dy":0.0017,"dx":0.0017,"nx":28,"ny":28,"refTime":"2024-12-07T09:00:00:Z","depth":0,"parameterNumber":2,"parameterNumberName":"U-component_of_WINDS"},"data":[0,0,0,0,0,0,0,0,0,0,0,0,0,0,0,0,0,0,0,0,0,0,0,0,0,0,0,0,0,0,0,0,0,0,0,0,0,0,0,0,0,0,0,0,0,0,0,0,0,0,0,0,0,0,0,0,0,0,-3.6963,-3.6964,0,-3.7027,-3.7028,-3.7029,-3.6908,-3.6904,-3.69,-3.6896,-3.6962,-3.6967,-3.6973,0,0,0,0,0,0,0,0,0,0,0,0,0,-3.6736,-3.6741,-3.6963,-3.6964,-3.6965,-3.7027,-3.7028,-3.7029,-3.6909,-3.6904,-3.6899,-3.6895,-3.696,-3.6967,-3.6973,0,0,0,0,0,0,0,0,0,0,0,0,0,-3.6821,-3.6743,-3.6963,-3.6913,-3.6909,-3.7027,-3.7028,-3.7029,-3.691,-3.6904,-3.6898,-3.6892,-3.6958,-3.6966,-3.6974,-3.7145,0,0,-3.6999,-3.7003,0,0,0,0,0,0,0,0,-3.6816,-3.6829,-3.6919,-3.6916,-3.6912,-3.6953,-3.6972,-3.7068,-3.6911,-3.6909,-3.6896,-3.6889,-3.6964,-3.6971,-3.6997,-3.7148,-3.7151,-3.7,-3.7005,-3.7009,-3.7011,0,0,0,0,0,0,0,-3.6811,-3.6826,-3.6988,-3.6921,-3.6916,-3.6886,-3.6892,-3.6989,-3.697,-3.6909,-3.6901,-3.691,-3.6961,-3.6989,-3.6997,-3.7152,-3.7,-3.7007,-3.7012,-3.7015,-3.7445,-3.7451,0,0,0,0,0,0,-3.6811,-3.6822,-3.6986,-3.699,-3.6848,-3.6895,-3.6901,-3.6946,-3.6968,-3.6966,-3.6915,-3.6904,-3.6978,-3.6988,-3.6999,-3.72,-3.7009,-3.7016,-3.7021,-3.7438,-3.7446,-3.7453,0,0,0,0,0,0,-3.6807,-3.6827,-3.6984,-3.6904,-3.6922,-3.6905,-3.6957,-3.6951,-3.6979,-3.6972,-3.6968,-3.6947,-3.6974,-3.6988,-3.7109,-3.7201,-3.702,-3.7027,-3.7431,-3.7441,-3.745,-3.7604,0,0,0,0,0,0,-3.6801,-3.6826,-3.6891,-3.6906,-3.6926,-3.7094,-3.6963,-3.6956,-3.6993,-3.6979,-3.7002,-3.7,-3.697,-3.7098,-3.7118,-3.7209,-3.7034,-3.7423,-3.7435,-3.7447,-3.7591,-3.7618,-3.7641,0,0,0,0,0,-3.6793,-3.6933,-3.6895,-3.6916,-3.7008,-3.71,-3.7111,-3.7074,-3.7001,-3.7066,-3.7062,-3.6999,-3.7187,-3.7111,-3.7132,-3.7228,-3.7417,-3.7432,-3.7446,-3.758,-3.7613,-3.7641,0,0,0,0,0,0,-3.693,-3.6934,-3.6892,-3.7041,-3.7071,-3.7079,-3.716,-3.711,-3.7161,-3.7147,-3.7098,-3.7104,-3.7236,-3.7243,-3.7159,-3.7393,-3.7289,-3.7309,-3.7384,-3.7415,-3.744,-3.7436,-3.7041,0,0,0,0,0,-3.6977,-3.7052,-3.7051,-3.7182,-3.7199,-3.7177,-3.7216,-3.7185,-3.7213,-3.7226,-3.723,-3.7261,-3.7326,-3.7371,-3.7431,-3.759,-3.7593,-3.7666,-3.7691,-3.7712,-3.773,-3.7814,-3.7847,-3.7501,-3.7501,-3.7501,0,0,-3.7076,-3.7087,-3.7137,-3.721,-3.7229,-3.7307,-3.7189,-3.7277,-3.7334,-3.7239,-3.7354,-3.7359,-3.7389,-3.753,-3.7593,-3.7541,-3.7826,-3.773,-3.7747,-3.7754,-3.7833,-3.7865,-3.7895,-3.7511,-3.7509,-3.7508,0,0,-3.7296,-3.7312,-3.7423,-3.7444,-3.7475,-3.7459,-3.7486,-3.7501,-3.75,-3.7615,-3.7545,-3.7612,-3.7726,-3.7751,-3.7778,-3.8005,-3.7949,-3.8026,-3.8158,-3.8241,-3.8268,-3.8292,-3.8373,-3.8403,-3.8043,-3.8044,-3.8044,0,-3.7415,-3.7531,-3.7486,-3.7579,-3.7613,-3.7529,-3.764,-3.7663,-3.7712,-3.7737,-3.7677,-3.7818,-3.7833,-3.7979,-3.8034,-3.8059,-3.8087,-3.8024,-3.8268,-3.8291,-3.8313,-3.839,-3.8421,-3.8053,-3.8052,-3.8051,-3.805,0,-3.7676,-3.7756,-3.7842,-3.7891,-3.7934,-3.8036,-3.8006,-3.8055,-3.8019,-3.8009,-3.8126,-3.814,-3.8202,-3.8233,-3.82,-3.8374,-3.8341,-3.8276,-3.8171,-3.8356,-3.8427,-3.8457,-3.8066,-3.8063,-3.806,-3.8058,0,0,-3.7987,-3.8008,-3.804,-3.8061,-3.8087,-3.8149,-3.8246,-3.8305,-3.8348,-3.8383,-3.8464,-3.8561,-3.85,-3.8531,-3.8499,-3.8572,-3.875,-3.8497,-3.8497,-3.8544,-3.8944,-3.8994,-3.9029,-3.8712,-3.8718,-3.8722,-3.8941,0,-3.8206,-3.8374,-3.8336,-3.8501,-3.8575,-3.8495,-3.8579,-3.8604,-3.8597,-3.8658,-3.8649,-3.872,-3.8634,-3.8652,-3.872,-3.8715,-3.883,-3.8698,-3.8787,-3.8791,-3.8784,-3.9066,-3.912,-3.9326,-3.8969,-3.8974,-3.8977,0,-3.8485,-3.8531,-3.8704,-3.8716,-3.8746,-3.8823,-3.8873,-3.8932,-3.8958,-3.8948,-3.8982,-3.8935,-3.903,-3.8923,-3.9053,-3.8964,-3.8997,-3.9,-3.9007,-3.9016,-3.8897,-3.9084,-3.9391,-3.9423,-3.9021,-3.9017,-3.9014,0,-3.8696,-3.88,-3.8917,-3.8937,-3.8955,-3.901,-3.902,-3.904,-3.9078,-3.9122,-3.9146,-3.92,-3.923,-3.9273,-3.9242,-3.9166,-3.9377,-3.9267,-3.9372,-3.9373,-3.9422,-3.9419,-3.9741,-3.9441,-3.9441,-3.944,-3.9439,0,-3.8945,-3.9055,-3.9011,-3.9084,-3.9203,-3.9157,-3.9276,-3.9276,-3.9295,-3.9365,-3.9298,-3.9365,-3.9319,-3.9382,-3.9357,-3.9469,-3.9483,-3.9477,-3.947,-3.9484,-3.9485,-3.9507,-3.9493,-3.9448,-3.9446,-3.9445,-3.9443,0,-3.9202,-3.9178,-3.93,-3.9306,-3.931,-3.9398,-3.9403,-3.9469,-3.9456,-3.9545,-3.9564,-3.9543,-3.9614,-3.9586,-3.9661,-3.9644,-3.9787,-3.976,-3.9779,-3.9773,-3.9879,-3.987,-4.0227,-4.0272,-3.9942,-3.9946,-3.9948,0,-3.9364,-3.9446,-3.9461,-3.9503,-3.9518,-3.9586,-3.9624,-3.9581,-3.9623,-3.9658,-3.972,-3.9784,-3.9834,-3.995,-3.9942,-3.9999,-3.9973,-4.0094,-3.9981,-3.9993,-3.9976,-3.9972,-3.998,-4.0118,-4.0122,-4.0125,-4.0127,0,-3.9655,-3.9638,-3.9695,-3.9748,-3.9795,-3.9834,-3.9868,-3.9906,-3.9864,-3.9915,-3.9986,-4.0024,-4.01,-4.0165,-4.0215,-4.0224,-4.017,-4.0162,-4.0189,-4.0206,-4.0214,-4.0212,-3.9842,-4.0155,-4.0152,-4.015,-4.0149,-4.0147,-3.987,-3.9939,-3.9959,-4.0025,-4.0045,-4.0078,-4.014,-4.0134,-4.0193,-4.0251,-4.0221,-4.0304,-4.0326,-4.0387,-4.0404,-4.0467,-4.042,-4.0459,-4.047,-4.0481,-4.0495,-4.0202,-4.0476,-4.0475,-4.0474,-4.0474,-4.0473,0,-4.0158,-4.0166,-4.0227,-4.0276,-4.0327,-4.0269,-4.0303,-4.035,-4.0423,-4.0448,-4.0498,-4.0579,-4.0641,-4.0636,-4.0693,-4.0745,-4.0721,-4.0762,-4.0758,-4.0761,-4.0534,-4.0505,-4.078,-4.078,-4.078,-4.078,-4.078,-4.0779,-4.0314,-4.0427,-4.0412,-4.0534,-4.0542,-4.0622,-4.0647,-4.0676,-4.0695,-4.0789,-4.084,-4.0836,-4.0849,-4.0906,-4.096,-4.0957,-4.0981,-4.1032,-4.102,-4.0808,-4.0777,-4.0748,-4.0721,-4.1037,-4.1037,-4.1242,-4.1244,-4.1245]},{"header":{"parameterUnit":"m.s-1","parameterCategory":1,"la1":30.2991,"la2":30.254,"lo1":-89.0895,"lo2":-89.0444,"dy":0.0017,"dx":0.0017,"nx":28,"ny":28,"refTime":"2024-12-07T09:00:00:Z","depth":0,"parameterNumber":3,"parameterNumberName":"V-component_of_WINDS"},"data":[0,0,0,0,0,0,0,0,0,0,0,0,0,0,0,0,0,0,0,0,0,0,0,0,0,0,0,0,0,0,0,0,0,0,0,0,0,0,0,0,0,0,0,0,0,0,0,0,0,0,0,0,0,0,0,0,0,0,-4.8861,-4.8862,0,-4.8947,-4.8948,-4.8949,-4.8887,-4.8884,-4.8881,-4.8879,-4.8962,-4.8967,-4.8972,0,0,0,0,0,0,0,0,0,0,0,0,0,-4.8636,-4.864,-4.8861,-4.8862,-4.8863,-4.8947,-4.8948,-4.895,-4.8887,-4.8884,-4.8881,-4.8877,-4.8961,-4.8966,-4.8972,0,0,0,0,0,0,0,0,0,0,0,0,0,-4.8729,-4.8642,-4.8861,-4.8842,-4.8841,-4.8947,-4.8948,-4.895,-4.8888,-4.8884,-4.888,-4.8876,-4.8959,-4.8966,-4.8973,-4.91,0,0,-4.8995,-4.8998,0,0,0,0,0,0,0,0,-4.8724,-4.8737,-4.8844,-4.8844,-4.8843,-4.8902,-4.89,-4.9,-4.8889,-4.887,-4.8879,-4.8874,-4.8945,-4.8953,-4.8978,-4.9104,-4.9107,-4.8996,-4.9,-4.9003,-4.9005,0,0,0,0,0,0,0,-4.8717,-4.8733,-4.8895,-4.8845,-4.8845,-4.8828,-4.8836,-4.8918,-4.893,-4.8871,-4.8867,-4.8879,-4.8944,-4.8972,-4.898,-4.9109,-4.8995,-4.9002,-4.9006,-4.9009,-4.934,-4.9344,0,0,0,0,0,0,-4.8713,-4.8728,-4.8892,-4.8897,-4.8772,-4.8835,-4.8845,-4.8887,-4.8929,-4.8931,-4.8882,-4.8875,-4.8961,-4.8972,-4.8983,-4.9132,-4.9003,-4.901,-4.9014,-4.9335,-4.9341,-4.9346,0,0,0,0,0,0,-4.8709,-4.8729,-4.8889,-4.8812,-4.8831,-4.8843,-4.8892,-4.8891,-4.8919,-4.8937,-4.8938,-4.8908,-4.8959,-4.8973,-4.9071,-4.9134,-4.9013,-4.9019,-4.933,-4.9337,-4.9343,-4.9434,0,0,0,0,0,0,-4.8703,-4.8727,-4.8777,-4.8813,-4.8835,-4.8978,-4.8896,-4.8896,-4.8932,-4.8924,-4.8962,-4.8964,-4.8956,-4.9061,-4.9078,-4.9142,-4.9025,-4.9324,-4.9333,-4.9341,-4.9425,-4.9443,-4.9458,0,0,0,0,0,-4.8695,-4.8799,-4.878,-4.88,-4.8898,-4.8981,-4.8994,-4.8984,-4.8937,-4.8986,-4.8997,-4.8963,-4.9125,-4.9071,-4.909,-4.9158,-4.932,-4.9331,-4.934,-4.9418,-4.944,-4.9458,0,0,0,0,0,0,-4.8768,-4.8803,-4.8783,-4.8902,-4.894,-4.8971,-4.9033,-4.9008,-4.9058,-4.9048,-4.9033,-4.9042,-4.9145,-4.9161,-4.9101,-4.9281,-4.9215,-4.9229,-4.9267,-4.9288,-4.9304,-4.9297,-4.9031,0,0,0,0,0,-4.8799,-4.8865,-4.8891,-4.8994,-4.9014,-4.902,-4.9056,-4.9046,-4.9083,-4.9098,-4.9117,-4.9153,-4.9211,-4.9251,-4.9306,-4.9428,-4.9434,-4.9483,-4.9499,-4.9513,-4.9525,-4.9588,-4.961,-4.9379,-4.9379,-4.9378,0,0,-4.8861,-4.8889,-4.8932,-4.9009,-4.9037,-4.9104,-4.9034,-4.9108,-4.9157,-4.9109,-4.9203,-4.9218,-4.9257,-4.9367,-4.9417,-4.9384,-4.959,-4.9526,-4.9536,-4.9541,-4.9601,-4.9623,-4.9642,-4.9385,-4.9384,-4.9383,0,0,-4.901,-4.9039,-4.9126,-4.9156,-4.9199,-4.9202,-4.9223,-4.9259,-4.9267,-4.9362,-4.9326,-4.9383,-4.9485,-4.9514,-4.9542,-4.9701,-4.967,-4.9719,-4.9804,-4.9866,-4.9884,-4.99,-4.9955,-4.9975,-4.9731,-4.9732,-4.9732,0,-4.9082,-4.9184,-4.9174,-4.9251,-4.9285,-4.9246,-4.9333,-4.9362,-4.942,-4.9444,-4.9406,-4.9533,-4.9557,-4.9672,-4.9711,-4.9735,-4.9757,-4.9714,-4.9883,-4.9899,-4.9913,-4.9965,-4.9986,-4.9737,-4.9737,-4.9736,-4.9735,0,-4.927,-4.9341,-4.9406,-4.9465,-4.9506,-4.9588,-4.9588,-4.9631,-4.9617,-4.9624,-4.9719,-4.9746,-4.9806,-4.9832,-4.9819,-4.9945,-4.9923,-4.9885,-4.9817,-4.9941,-4.999,-5.001,-4.9745,-4.9743,-4.9741,-4.974,0,0,-4.9467,-4.9519,-4.9543,-4.9569,-4.9613,-4.9667,-4.9745,-4.9805,-4.9841,-4.9882,-4.9947,-5.0034,-4.9998,-5.003,-5.0019,-5.0074,-5.0195,-5.0028,-5.0029,-5.0057,-5.0334,-5.0362,-5.0386,-5.0175,-5.0179,-5.0182,-5.033,0,-4.9617,-4.9757,-4.9749,-4.9879,-4.9943,-4.9906,-4.9974,-5.0008,-5.0016,-5.007,-5.0078,-5.0139,-5.0088,-5.0107,-5.016,-5.017,-5.025,-5.0159,-5.0233,-5.0236,-5.0223,-5.0411,-5.0441,-5.058,-5.0349,-5.0353,-5.0355,0,-4.9811,-4.986,-4.9997,-5.003,-5.0057,-5.0119,-5.0171,-5.0224,-5.026,-5.0262,-5.0298,-5.0277,-5.0355,-5.0286,-5.0391,-5.0329,-5.0359,-5.0368,-5.0373,-5.0379,-5.0302,-5.042,-5.0624,-5.0644,-5.0385,-5.0383,-5.038,0,-4.9939,-5.0039,-5.0134,-5.0157,-5.0199,-5.0243,-5.0262,-5.0294,-5.033,-5.0375,-5.0398,-5.0451,-5.048,-5.0521,-5.0515,-5.0466,-5.0622,-5.0553,-5.0623,-5.0624,-5.0657,-5.0655,-5.0867,-5.0679,-5.0678,-5.0678,-5.0678,0,-5.0106,-5.0191,-5.0192,-5.025,-5.0343,-5.0332,-5.0424,-5.0438,-5.0467,-5.0525,-5.0496,-5.0551,-5.054,-5.0594,-5.059,-5.0676,-5.069,-5.0692,-5.0689,-5.0694,-5.0694,-5.0712,-5.0702,-5.0683,-5.0682,-5.0681,-5.068,0,-5.0265,-5.0269,-5.0369,-5.0401,-5.0411,-5.0478,-5.0503,-5.0557,-5.0562,-5.0636,-5.0653,-5.0661,-5.0723,-5.0722,-5.0792,-5.0789,-5.0895,-5.0882,-5.0883,-5.088,-5.095,-5.0943,-5.118,-5.121,-5.1004,-5.1006,-5.1008,0,-5.0371,-5.0436,-5.0474,-5.0512,-5.0534,-5.0595,-5.0631,-5.0623,-5.0662,-5.0707,-5.0755,-5.0815,-5.0862,-5.0962,-5.0973,-5.1026,-5.1013,-5.1093,-5.1021,-5.1023,-5.1013,-5.1009,-5.1014,-5.1107,-5.1109,-5.1111,-5.1112,0,-5.0558,-5.0557,-5.0612,-5.0667,-5.0711,-5.0754,-5.0793,-5.0825,-5.082,-5.0865,-5.0929,-5.0965,-5.1037,-5.1096,-5.1147,-5.1164,-5.1137,-5.1135,-5.1154,-5.1159,-5.1156,-5.1157,-5.092,-5.113,-5.1128,-5.1127,-5.1126,-5.1125,-5.0693,-5.0748,-5.0783,-5.0844,-5.0873,-5.091,-5.0962,-5.0974,-5.1028,-5.1086,-5.1078,-5.1149,-5.1181,-5.1247,-5.1269,-5.1322,-5.1294,-5.1322,-5.1328,-5.1335,-5.1342,-5.1149,-5.1332,-5.1331,-5.1331,-5.133,-5.133,0,-5.0877,-5.0898,-5.0955,-5.1011,-5.1058,-5.103,-5.1072,-5.1113,-5.1176,-5.1209,-5.1257,-5.1329,-5.1386,-5.1401,-5.1455,-5.1495,-5.1484,-5.1509,-5.1505,-5.1509,-5.1365,-5.1343,-5.1517,-5.1517,-5.1517,-5.1517,-5.1517,-5.1517,-5.0979,-5.107,-5.1072,-5.1176,-5.1196,-5.1266,-5.1292,-5.1325,-5.1351,-5.1434,-5.1482,-5.1492,-5.1517,-5.1573,-5.1623,-5.1625,-5.1646,-5.1676,-5.1674,-5.1539,-5.152,-5.1502,-5.1481,-5.1681,-5.1681,-5.1813,-5.1815,-5.1816]}]]